Weather History for Lumberton, NC

Change the Weather History Date:

Sunday, May 26, 2013

  Actual Average Record
Temperature  
Mean Temperature 65 °F 73 °F  
Max Temperature 78 °F 84 °F 96 °F (2004)
Min Temperature 51 °F 61 °F 49 °F (2005)
Degree Days  
Heating Degree Days 0 0  
Month to date heating degree days 36 30  
Since 1 July heating degree days 2800 2759  
Cooling Degree Days 0 8  
Month to date cooling degree days 111 138  
Year to date cooling degree days 155 206  
Growing Degree Days 16 (Base 50)    
Moisture  
Dew Point 47 °F    
Average Humidity 61    
Maximum Humidity 93    
Minimum Humidity 28    
Precipitation  
Precipitation T in 0.12 in 0.53 in (2006)
Month to date precipitation 3.13 2.42  
Year to date precipitation 14.49 14.44  
Sea Level Pressure  
Sea Level Pressure 30.21 in    
Wind  
Wind Speed 3 mph (NNW)    
Max Wind Speed 12 mph    
Max Gust Speed 16 mph    
Visibility 10 miles    
Events      
T = Trace of Precipitation, MM = Missing Value Source: NWS Daily Summary

Daily Weather History Graph

Daily Weather History Graph

Search for Another Location

Airport:

Trip Planner

Search our weather history database for the weather conditions in past years. The results will help you decide how hot, cold, wet, or windy it might be!

Date:

Astronomy

May. 26, 2013 Rise Set
Actual Time 6:06 AM EDT 8:20 PM EDT
Civil Twilight 5:38 AM EDT 8:48 PM EDT
Nautical Twilight 5:03 AM EDT 9:24 PM EDT
Astronomical Twilight 4:25 AM EDT 10:02 PM EDT
Moon 10:07 PM EDT (5/26) 7:33 AM EDT (5/26)
Length of Visible Light 15h 10m
Length of Day
14h 13m
Waning Gibbous, 97% of the Moon is Illuminated
May 26
Waning Gibbous
May 31
Last Quarter
Jun 8
New
Jun 16
First Quarter
Jun 23
Full

Hourly Weather History & Observations

Time (EDT) Temp. Dew Point Humidity Pressure Visibility Wind Dir Wind Speed Gust Speed Precip Events Conditions
12:54 AM 53.1 °F 51.1 °F 93% 30.17 in 10.0 mi Calm Calm - N/A   Clear
1:54 AM 53.1 °F 51.1 °F 93% 30.16 in 10.0 mi Calm Calm - N/A   Clear
2:54 AM 55.9 °F 51.1 °F 84% 30.17 in 10.0 mi Calm Calm - N/A   Clear
3:54 AM 57.9 °F 48.9 °F 72% 30.18 in 10.0 mi NNW 4.6 mph - N/A   Clear
4:54 AM 55.9 °F 48.9 °F 77% 30.18 in 10.0 mi Calm Calm - N/A   Mostly Cloudy
5:54 AM 54.0 °F 48.9 °F 83% 30.20 in 10.0 mi Calm Calm - N/A   Overcast
6:54 AM 55.9 °F 46.0 °F 69% 30.23 in 10.0 mi NNW 4.6 mph - N/A   Mostly Cloudy
7:54 AM 57.9 °F 45.0 °F 62% 30.24 in 10.0 mi North 4.6 mph - N/A   Overcast
8:54 AM 61.0 °F 45.0 °F 56% 30.27 in 10.0 mi North 5.8 mph - N/A   Mostly Cloudy
9:54 AM 61.0 °F 46.0 °F 58% 30.27 in 10.0 mi NNE 6.9 mph - 0.00 in   Overcast
10:54 AM 68.0 °F 43.0 °F 40% 30.27 in 10.0 mi NNE 8.1 mph - N/A   Mostly Cloudy
11:54 AM 70.0 °F 41.0 °F 35% 30.26 in 10.0 mi Variable 4.6 mph - N/A   Overcast
12:54 PM 71.1 °F 39.9 °F 32% 30.24 in 10.0 mi NNW 4.6 mph - N/A   Clear
1:54 PM 75.0 °F 42.1 °F 31% 30.23 in 10.0 mi Variable 5.8 mph - N/A   Overcast
2:54 PM 73.9 °F 43.0 °F 33% 30.22 in 10.0 mi North 4.6 mph - N/A   Overcast
3:54 PM 75.0 °F 43.0 °F 32% 30.20 in 10.0 mi North 4.6 mph - N/A   Overcast
4:54 PM 78.1 °F 43.0 °F 29% 30.19 in 10.0 mi WNW 5.8 mph - N/A   Clear
5:54 PM 77.0 °F 43.0 °F 30% 30.18 in 10.0 mi West 10.4 mph - N/A   Clear
6:54 PM 75.0 °F 44.1 °F 33% 30.18 in 10.0 mi Variable 4.6 mph - N/A   Clear
7:54 PM 70.0 °F 50.0 °F 49% 30.19 in 10.0 mi Calm Calm - N/A   Clear
8:54 PM 60.1 °F 53.1 °F 78% 30.20 in 10.0 mi Calm Calm - N/A   Clear
9:54 PM 57.0 °F 53.1 °F 87% 30.21 in 10.0 mi Calm Calm - N/A   Clear
10:54 PM 55.0 °F 52.0 °F 89% 30.22 in 10.0 mi Calm Calm - N/A   Clear
11:54 PM 53.1 °F 51.1 °F 93% 30.23 in 10.0 mi Calm Calm - N/A   Clear